カタログに戻る

STARLINK-35759

運用中通信VLEO
NORAD 69246·PAYLOAD·🇺🇸 United States

打ち上げ May 29, 2026 から Cape Canaveral Space Force Station

Loading…

次のパス (今後24時間)

TLE

最新Source: CelesTrak SupGP

元期: Sep 14, 2026, 23:06 UTC

1 69246C 26117J   26257.96298611 -.00064560  00000+0 -19067-2 0  2572
2 69246  53.1572 179.5389 0001239  98.4453  65.2109 15.34435371    12

AllMySatでSTARLINK-35759をリアルタイム追跡

Download on the App Store